Погода в Андреевке

Казахстан     51°40′00″N   70°24′42″E
темп.,
°C
ветер,
м/с
пор.,
м/с
влажн.,
%
обл.,
%
осадки,
мм/ч
давл.,
гПа
погр.,
м
19 сентября, вс
вс1900:00+10зюз61152100 0.0 10071063
03:00+6з8127380 0.0 1009976
06:00+6з697694 0.0 1010770
09:00+6з697842 0.0 1011679
12:00+7з81063100 0.2 10121444
15:00+6з81158100 0.1 10131448
18:00+7з8124389 0.1 10142193
21:00+5з6125620 0.0 1016634
20 сентября, пн
пн2000:00+4з612625 0.0 1017555
03:00+3з511675 0.0 1018425
06:00+2зюз6126811 0.0 1019410
09:00+3з812635 0.0 1019911
12:00+6зсз8104886 0.0 10191421
15:00+8зсз793843 0.0 10191645
18:00+7ссз784590 0.0 10201518
21:00+5ссз575688 0.0 1022709
21 сентября, вт
вт2100:00+4ссз476245 0.0 1023698
03:00+1ссз37785 0.0 1024211
06:000ссз36895 0.0 1025153
09:00+2ссз467937 0.0 1026472
12:00+4с4561100 0.0 10261157
15:00+4ссз4459100 0.1 10261228
18:00+4ссз4457100 0.1 10261276
21:00+4ссз3356100 0.0 10271046
22 сентября, ср
ср2200:00+3ссз225990 0.0 102776
03:00+1зсз226526 0.0 102622
06:000зсз22735 0.0 102724
09:00+2зсз33635 0.0 1027260
12:00+6зсз33485 0.0 10261078
15:00+9зсз454067 0.0 10241621
18:00+10зсз463873 0.0 10231785
21:00+6зсз235098 0.0 102435
23 сентября, чт
чт2300:00+6зсз1152100 0.0 102415
03:00+6зсз3453100 0.0 102471
06:00+5сз365869 0.0 1024122
09:00+5ссв57705 0.0 1026465
12:00+6ссв5663100 0.0 10281087
15:00+7с4554100 0.0 10281393
18:00+7с4550100 0.0 10291522
21:00+7ссв4550100 0.0 1030217